Location: Alpha Ridge Park
(39.3209°N, 76.9128°W)
Time: 18:14:11
(UTC-05:00)

ISS - Visible Passes

Search period start: 28 November 2023 00:00
Search period end: 08 December 2023 00:00
Orbit: 416 x 418 km, 51.6° (Epoch: 28 November)

Date Brightness Start Highest point End Pass type
(mag) Time Alt. Az. Time Alt. Az. Time Alt. Az.
28 Nov -1.4 17:44:00 10° N 17:45:01 11° N 17:46:01 10° NNE visible
29 Nov -1.4 18:31:39 10° NNW 18:32:40 15° NNW 18:32:40 15° NNW visible
30 Nov -1.8 17:43:34 10° NNW 17:45:37 15° NNE 17:46:27 14° NE visible
01 Dec -2.3 18:31:17 10° NW 18:33:14 27° NNW 18:33:14 27° NNW visible
02 Dec -2.6 17:43:01 10° NNW 17:45:53 26° NNE 17:47:13 20° ENE visible
02 Dec -0.7 19:19:33 10° WNW 19:20:09 14° WNW 19:20:09 14° WNW visible
03 Dec -3.7 18:30:57 10° NW 18:34:18 76° SW 18:34:19 76° SW visible
04 Dec -3.7 17:42:28 10° NW 17:45:47 60° NE 17:48:47 12° ESE visible
04 Dec -0.6 19:20:21 10° W 19:21:45 14° WSW 19:21:45 14° WSW visible
05 Dec -1.5 18:31:00 10° WNW 18:33:46 24° SW 18:36:33 10° S visible
06 Dec -2.6 17:42:05 10° WNW 17:45:17 44° SW 17:48:29 10° SSE visible
